sat.trackr.live / text

‹ back to catalog

IRIDIUM 107

NORAD 42960 · 2017-061F

PAYLOAD ACTIVE UNKNOWN

§ Identity

Operator
Country
US
Launch date
2017-10-09
Launch site
AFWTR
Launch vehicle
Mass (kg)
RCS (m²)

Purposes: comms

External: N2YO · Heavens-Above · Gunter

§ Orbital elements

Epoch: 2026-05-25T02:55:50.685888Z

Period
100.40 min
Inclination
86.3990°
Eccentricity
0.0002285
Mean motion
14.34217892 rev/d
Perigee alt
776.0 km
Apogee alt
779.3 km
Semi-major
7,155.8 km
B*
3.9616e-6
RAAN
34.9117°
Arg perigee
78.4597°
Mean anomaly
281.6855°
Rev number
45,151

§ Raw data

IRIDIUM 1071 42960U 17061F   26145.12211442  .00000031  00000+0  39616-5 0  99942 42960  86.3990  34.9117 0002285  78.4597 281.6855 14.34217892451512

JSON: /api/v1/satellites/42960 · /tle

For live sub-satellite position, see the globe view (requires WebGL).

§ Visibility from observer

Set your observer location to see the next 7 days of passes ≥ 10°. The values pass through the URL so the page stays shareable.

No JS? Fill the form by hand. The geolocation button needs JavaScript.